Preview of NWS' New Version of Forecast
This preview is not operational and should not be used for support decisions.

Regional Weather Roundup (RWR)

Issued by National Weather Service (NWS)

                            
000
ASUS43 KDMX 191406
RWRIA 

WEATHER ROUNDUP FOR IOWA
NATIONAL WEATHER SERVICE DES MOINES IA
800 AM CST TUE FEB 19 2019

NOTE: "FAIR" INDICATES FEW OR NO CLOUDS BELOW 12,000 FEET WITH NO
SIGNIFICANT WEATHER AND/OR OBSTRUCTIONS TO VISIBILITY.

* - THESE STATIONS ARE NOT NWS STATIONS...THUS NOT UNDER NWS
QUALITY CONTROL.  THEY ALSO DO NOT REPORT WEATHER SUCH 
AS PRECIPITATION OR FOG.  

IAZ001>003-012>014-020>022-031>034-043>046-191500-
   NORTHWEST IOWA
  
CITY           SKY/WX    TMP DP  RH WIND       PRES   REMARKS
CARROLL *      FOG       -8  -9  92 CALM      30.54R VSB<1/4          
CHEROKEE *     CLOUDY   -11 -14  85 CALM      30.53S FOG              
DENISON *      CLOUDY    -4  -8  84 CALM      30.53R                  
LE MARS *      CLOUDY    -9 -13  84 N3        30.52S FOG              
ORANGE CITY *  SNOW      -2  -6  84 CALM      30.48R VSB 1/4          
SHELDON *        N/A     -9 -11  92 SE3       30.47S                  
SIOUX CITY     CLOUDY    -7 -10  87 CALM      30.52S FOG              
SPENCER        CLOUDY    -8 -15  71 S3        30.52R HAZE             
STORM LAKE *   FOG       -4  -6  92 SE5       30.49S VSB<1/4 WCI -15  
$$
 
IAZ055>058-069>071-079>083-090>094-191500-
   SOUTHWEST IOWA
  
CITY           SKY/WX    TMP DP  RH WIND       PRES   REMARKS
ATLANTIC *     CLOUDY    -9 -13  84 CALM      30.53F                  
AUDUBON *      CLOUDY    -9 -15  77 CALM      30.52S                  
CLARINDA *     CLOUDY     1  -2  85 N6        30.57R WCI -10          
COUNCIL BLFS * CLOUDY     3   3 100 E6        30.51R WCI  -8          
CRESTON *      CLOUDY     5   3  92 E9        30.54R WCI  -9          
HARLAN  *      CLOUDY    -8 -11  84 CALM      30.53R                  
LAMONI         CLOUDY     8   4  83 NE7       30.52S WCI  -3          
RED OAK *      CLOUDY     0  -4  85 N5        30.55R WCI -10          
SHENANDOAH *   CLOUDY     1  -2  85 NE6       30.55S WCI -10          
$$
 
IAZ047>049-059>061-072>074-084-191500-
   CENTRAL IOWA
  
CITY           SKY/WX    TMP DP  RH WIND       PRES   REMARKS
AMES           FOG       -9 -11  91 SW5       30.58R VSB 1/4 WCI -20  
ANKENY *       FOG       -6  -9  84 CALM      30.60R VSB<1/4          
BOONE *        FOG       -6  -9  84 CALM      30.55R VSB<1/4          
CHARITON *     CLOUDY     3   1  92 CALM      30.57R                  
DES MOINES     LGT SNOW  -1  -3  91 CALM      30.58R FOG              
GRINNELL*      LGT SNOW   1  -2  88 CALM      30.59R                  
KNOXVILLE *    CLOUDY     1   1 100 NE5       30.58R WCI  -8          
MARSHALLTOWN   CLOUDY   -14 -16  91 CALM      30.56S FOG              
NEWTON *       CLOUDY    -2  -6  84 CALM      30.58R                  
PELLA *        CLOUDY    -1  -5  85 CALM      30.60R                  
PERRY *          N/A    N/A N/A N/A MISG        N/A                   
$$
 
IAZ004>006-015-016-023>025-035-036-191500-
   NORTH CENTRAL IOWA
  
CITY           SKY/WX    TMP DP  RH WIND       PRES   REMARKS
ALGONA *       ICE FOG  -11 -15  84 CALM      30.51R VSB 1/4          
CLARION *      CLOUDY   -13 -18  77 CALM      30.55R                  
ESTHERVILLE    ICE FOG  -12 -14  90 SW5       30.50S VSB 1/4 WCI -24  
FORT DODGE *   FOG       -9 -15  77 CALM      30.55S VSB 1/4          
MASON CITY     CLOUDY   -10 -13  86 CALM      30.55S FOG              
FOREST CITY *  FAIR      -9 -15  77 CALM      30.53S                  
IOWA FALLS *   FAIR      -7 -11  83 CALM      30.57R                  
$$

IAZ007>011-017>019-026>030-037>042-050>054-066-191500-
   NORTHEAST IOWA
  
CITY           SKY/WX    TMP DP  RH WIND       PRES   REMARKS
CEDAR RAPIDS   CLOUDY    -6  -8  91 N3        30.58S FOG              
CHARLES CITY * FAIR      -8 -11  84 NE3       30.56S                  
CLINTON *      FAIR      -1  -4  87 NE6       30.62S WCI -13          
DECORAH *      FAIR      -4  -6  92 CALM      30.55S                  
DUBUQUE        FOG       -1  -5  82 CALM      30.57S VSB 1            
OELWEIN *      FAIR      -4  -6  92 E5        30.58R WCI -15          
WATERLOO       FAIR     -11 -16  78 N3        30.60R                  
$$
 
IAZ064-065-067-068-078-191500-
   EAST CENTRAL IOWA
  
CITY           SKY/WX    TMP DP  RH WIND       PRES   REMARKS
DAVENPORT      FOG        3   0  87 N5        30.62S VSB 1/4 WCI  -6  
IOWA CITY      FAIR       4   0  83 CALM      30.63S FOG              
MT. PLEASANT * CLOUDY    10   9  92 CALM      30.61R                  
MUSCATINE *    FAIR       3   0  85 CALM      30.64R FOG              
QUAD CITIES    FAIR       7   4  87 CALM      30.61S                  
$$
 
IAZ062-063-075>077-085>089-095>099-191500-
   SOUTHEAST IOWA
  
CITY           SKY/WX    TMP DP  RH WIND       PRES   REMARKS
BURLINGTON     PTSUNNY   14  10  84 NE5       30.60R WCI   6          
FAIRFIELD *    CLOUDY     5   0  78 N5        30.59R WCI  -4          
KEOKUK *       CLOUDY    18  14  86 NE5       30.58S WCI  11          
OSKALOOSA *    FAIR      -2  -5  87 CALM      30.59S                  
OTTUMWA        CLOUDY     3   0  87 NE3       30.58R FOG              
WASHINGTON *   CLOUDY     3   1  92 N5        30.62R WCI  -6          
$$

ABBREVIATIONS USED IN REMARKS
   TC - TEMPERATURES IN CELSIUS
  WCI - WIND CHILL INDEX
   HX - HEAT INDEX
  VSB - VISIBILITY  
$$